User: anonymous   Login
Location: Unspecified
(0.0000°N, 0.0000°E)
Time: 11:54:01
(UTC+00:00)
Language:

MERIDIAN 1 - Orbit

View from above orbital plane
View from above orbital plane
View from above satellite
View from above satellite

Ground track
Ground track

The orbit data is extracted from the following two-line orbital elements,

1 29668U 06061A   19079.83586025 -.00000240 +00000-0 -45709-3 0  9993
2 29668 063.6660 003.7598 7447490 233.8175 033.0465 02.00644664089668
Epoch (UTC): 20 March 2019 20:03:38
Eccentricity: 0.7447490
inclination: 63.6660°
perigee height: 399 km
apogee height: 39950 km
right ascension of ascending node: 3.7598°
argument of perigee: 233.8175°
revolutions per day: 2.00644664
mean anomaly at epoch: 33.0465°
orbit number at epoch: 8966

The dashed part of the orbit path shows where the satellite is in the earth's shadow,  

DLR